CW2157 Weather Reports


time (UTC)temp
F
wind
direction
speed
knots
gust
knots
rain 1hr
in
rain 24hr
in
rain mn
in
humidity
%
barometer
mb
20260507150205 57 344 4.3 8.7 0.00 0.19 0.16 59 1010.7
20260507145705 57 14 1.7 6.1 0.00 0.20 0.16 58 1010.8
20260507145205 57 350 2.6 7.8 0.00 0.20 0.16 58 1010.9
20260507144705 57 24 2.6 10.4 0.00 0.21 0.16 59 1010.9
20260507144205 57 11 3.5 7.0 0.00 0.21 0.16 61 1010.9
20260507143205 57 24 6.1 10.4 0.00 0.21 0.16 59 1011.0
20260507142705 57 341 4.3 8.7 0.00 0.21 0.16 59 1011.0
20260507142205 57 343 3.5 10.4 0.00 0.21 0.16 60 1010.9
20260507141705 57 6 4.3 8.7 0.00 0.21 0.16 61 1011.0
20260507141204 57 6 4.3 10.4 0.00 0.21 0.16 60 1010.9
20260507140705 57 27 0.9 10.4 0.00 0.21 0.16 62 1010.9
20260507140205 57 28 2.6 8.7 0.00 0.21 0.16 60 1010.9
20260507135705 57 12 4.3 8.7 0.00 0.21 0.16 62 1010.9
20260507135205 57 352 2.6 10.4 0.00 0.21 0.16 62 1010.8
20260507134705 57 357 4.3 10.4 0.00 0.21 0.16 61 1010.8
20260507134204 57 357 5.2 10.4 0.00 0.21 0.16 62 1010.9
20260507133705 57 351 2.6 6.1 0.00 0.21 0.16 61 1010.9
20260507133205 58 20 3.5 8.7 0.00 0.21 0.16 62 1011.0
20260507132205 58 336 2.6 7.0 0.00 0.21 0.16 66 1011.0
20260507131205 57 339 3.5 7.0 0.00 0.21 0.16 68 1010.8
20260507130705 57 4 2.6 7.0 0.00 0.21 0.16 67 1010.7
20260507130205 57 12 2.6 8.7 0.00 0.21 0.16 69 1010.9
20260507125705 57 18 2.6 7.0 0.00 0.21 0.16 73 1010.7
20260507124705 57 20 2.6 5.2 0.00 0.21 0.16 81 1010.7
20260507124205 56 0 0.9 4.3 0.00 0.21 0.16 81 1011.1
20260507123704 56 46 0.9 2.6 0.00 0.21 0.16 81 1011.0
20260507123205 56 33 2.6 4.3 0.00 0.21 0.16 82 1010.7
20260507122706 56 36 1.7 4.3 0.00 0.21 0.16 82 1010.8
20260507122205 55 28 1.7 7.0 0.00 0.21 0.16 82 1010.8
20260507121705 55 41 1.7 4.3 0.00 0.21 0.16 83 1010.8
20260507121205 55 66 1.7 2.6 0.00 0.21 0.16 83 1010.9
20260507120705 55 51 0.9 5.2 0.00 0.21 0.16 83 1010.7
20260507120205 55 11 0.9 4.3 0.00 0.21 0.16 83 1010.8
20260507115705 55 47 2.6 4.3 0.00 0.21 0.16 83 1010.7
20260507115205 55 52 1.7 2.6 0.00 0.21 0.16 83 1010.7
20260507114705 55 65 2.6 4.3 0.00 0.21 0.16 83 1010.5
20260507114205 55 60 2.6 5.2 0.00 0.21 0.16 84 1010.6
20260507113205 54 25 0.9 2.6 0.01 0.21 0.16 84 1010.7
20260507112205 54 63 1.7 4.3 0.01 0.21 0.16 84 1010.6
20260507111705 54 45 2.6 5.2 0.01 0.21 0.16 83 1010.6
20260507111204 54 42 0.9 2.6 0.01 0.21 0.16 83 1010.7
20260507110705 54 47 2.6 7.8 0.01 0.21 0.16 83 1010.6
20260507110204 54 59 2.6 5.2 0.01 0.21 0.16 83 1010.5
20260507105705 54 36 2.6 7.8 0.01 0.21 0.16 83 1010.5
20260507105204 54 9 2.6 6.1 0.01 0.21 0.16 83 1010.4
20260507104205 54 39 2.6 6.1 0.01 0.21 0.16 84 1010.1
20260507103705 54 39 3.5 7.0 0.01 0.21 0.16 85 1010.0
20260507103204 54 36 4.3 7.0 0.00 0.20 0.15 85 1010.0
20260507102705 54 54 3.5 5.2 0.00 0.20 0.15 86 1010.1
20260507102205 54 46 3.5 6.1 0.00 0.20 0.15 85 1010.0
20260507101705 54 52 2.6 4.3 0.00 0.20 0.15 85 1009.8
20260507101204 54 38 3.5 7.8 0.00 0.20 0.15 86 1009.9
20260507100705 54 340 4.3 6.1 0.00 0.20 0.15 86 1009.9
20260507100205 54 13 2.6 6.1 0.00 0.20 0.15 86 1009.9
20260507095205 54 50 1.7 7.0 0.00 0.20 0.15 87 1010.0
20260507094705 54 50 2.6 5.2 0.00 0.20 0.15 87 1010.0
20260507094205 55 45 4.3 5.2 0.00 0.20 0.15 86 1009.8
20260507093705 55 37 1.7 5.2 0.00 0.20 0.15 85 1009.9
20260507093205 55 345 2.6 5.2 0.00 0.20 0.15 85 1009.9
20260507092205 55 354 2.6 7.0 0.00 0.20 0.15 83 1009.9
20260507091705 55 12 4.3 10.4 0.00 0.20 0.15 85 1009.9
20260507091205 56 1 4.3 10.4 0.00 0.20 0.15 86 1009.8
20260507090704 56 22 4.3 8.7 0.00 0.20 0.15 86 1009.7
20260507090205 56 342 4.3 10.4 0.00 0.20 0.15 86 1009.7
20260507085705 56 22 5.2 10.4 0.00 0.20 0.15 86 1009.6
20260507084704 56 12 3.5 10.4 0.00 0.20 0.15 87 1010.0
20260507084205 56 22 1.7 5.2 0.00 0.20 0.15 87 1009.5
20260507083704 56 9 5.2 10.4 0.00 0.20 0.15 87 1009.5
20260507082705 57 36 6.1 11.3 0.00 0.20 0.15 88 1009.2
20260507082205 57 34 4.3 10.4 0.00 0.20 0.15 88 1009.0
20260507081704 57 322 1.7 5.2 0.00 0.20 0.15 87 1009.0
20260507081205 57 351 2.6 12.2 0.00 0.20 0.15 87 1009.0
20260507080705 57 349 5.2 13.9 0.00 0.20 0.15 87 1008.8
20260507075205 57 344 4.3 10.4 0.00 0.20 0.15 88 1008.6
20260507074704 57 358 3.5 10.4 0.00 0.20 0.15 88 1008.8
20260507074204 57 3 2.6 12.2 0.00 0.20 0.15 88 1009.0
20260507073704 57 349 6.1 10.4 0.00 0.20 0.15 88 1008.9
20260507073205 57 357 3.5 10.4 0.00 0.20 0.15 89 1008.6
20260507072705 57 14 5.2 11.3 0.00 0.20 0.15 89 1008.2
20260507072204 57 344 5.2 11.3 0.00 0.20 0.15 89 1008.3
20260507071705 57 352 2.6 8.7 0.00 0.20 0.15 89 1008.3
20260507071205 57 17 3.5 10.4 0.01 0.20 0.15 89 1008.4
20260507070704 57 11 3.5 10.4 0.01 0.20 0.15 89 1008.6
20260507065704 58 358 3.5 8.7 0.01 0.20 0.15 89 1008.4
20260507065205 58 347 4.3 10.4 0.02 0.20 0.15 89 1008.1
20260507064705 58 358 3.5 10.4 0.04 0.20 0.15 89 1007.6
20260507064205 58 353 6.1 12.2 0.05 0.20 0.15 89 1007.5
20260507063704 59 20 4.3 8.7 0.07 0.20 0.15 89 1007.6
20260507063205 59 8 3.5 7.8 0.11 0.20 0.15 89 1007.6
20260507062704 59 6 3.5 7.8 0.12 0.20 0.15 89 1007.6
20260507062204 59 337 5.2 8.7 0.13 0.20 0.15 88 1007.7
20260507061705 59 3 5.2 10.4 0.15 0.20 0.15 88 1007.7
20260507061205 59 340 2.6 10.4 0.14 0.19 0.14 88 1008.2
20260507060704 60 317 5.2 10.4 0.14 0.19 0.14 87 1008.3
20260507060204 60 327 4.3 7.8 0.14 0.19 0.14 86 1008.1
20260507055205 61 53 5.2 10.4 0.13 0.18 0.13 86 1007.6
20260507054705 62 8 3.5 7.8 0.11 0.16 0.11 86 1007.9
20260507053705 63 343 1.7 2.6 0.08 0.13 0.08 85 1008.6
20260507053204 63 341 1.7 5.2 0.04 0.09 0.04 84 1008.6
20260507051705 64 358 2.6 6.1 0.00 0.05 0.00 79 1008.0
20260507051204 64 342 4.3 13.0 0.00 0.05 0.00 78 1008.4
20260507050704 65 337 2.6 5.2 0.00 0.05 0.00 78 1008.5
20260507050204 65 294 0.9 4.3 0.00 0.05 0.00 78 1008.6
20260507045704 65 305 1.7 4.3 0.00 0.05 0.00 79 1008.5
20260507045204 65 303 2.6 6.1 0.00 0.05 0.00 81 1008.2
20260507044705 65 232 2.6 4.3 0.00 0.05 0.00 82 1008.4
20260507044205 65 330 2.6 7.0 0.00 0.05 0.00 82 1008.1
20260507043705 65 19 4.3 7.0 0.00 0.05 0.00 84 1008.0
20260507042704 65 352 1.7 2.6 0.00 0.05 0.00 86 1008.0
20260507042205 65 277 0.9 2.6 0.00 0.05 0.00 87 1008.0
20260507041705 65 225 1.7 4.3 0.00 0.05 0.00 87 1007.9
20260507041205 65 228 1.7 4.3 0.00 0.05 0.00 87 1007.7
20260507040705 65 235 0.9 2.6 0.00 0.05 0.00 87 1007.7
20260507040205 65 325 4.3 12.2 0.00 0.05 0.00 88 1007.6
20260507035704 65 238 0.9 4.3 0.00 0.05 0.05 88 1007.7
20260507034704 65 203 3.5 4.3 0.00 0.05 0.05 88 1007.5
20260507034204 65 211 2.6 4.3 0.00 0.05 0.05 88 1007.6
20260507033704 65 215 4.3 4.3 0.00 0.05 0.05 88 1007.5
20260507033205 65 216 2.6 4.3 0.00 0.05 0.05 88 1007.4
20260507032704 65 221 4.3 4.3 0.00 0.05 0.05 88 1007.4
20260507032204 65 213 2.6 2.6 0.00 0.05 0.05 88 1007.2
20260507031704 65 219 1.7 2.6 0.00 0.05 0.05 88 1007.2
20260507030205 64 210 2.6 4.3 0.00 0.05 0.05 89 1007.1
20260507025704 64 218 1.7 4.3 0.00 0.05 0.05 89 1007.2
20260507024705 64 195 3.5 6.1 0.00 0.05 0.05 89 1007.0
20260507024205 64 189 4.3 5.2 0.00 0.05 0.05 89 1007.1
20260507023705 64 184 4.3 6.1 0.00 0.05 0.05 89 1007.3
20260507022704 64 204 4.3 6.1 0.00 0.05 0.05 89 1007.5
20260507022205 64 210 3.5 5.2 0.00 0.05 0.05 89 1007.5
20260507021705 64 188 1.7 2.6 0.00 0.05 0.05 89 1007.5
20260507021204 64 204 1.7 2.6 0.00 0.05 0.05 89 1007.4
20260507020705 64 178 1.7 2.6 0.00 0.05 0.05 89 1007.4
20260507020204 64 169 0.0 0.9 0.00 0.05 0.05 89 1007.5
20260507015705 64 169 1.7 2.6 0.00 0.05 0.05 89 1007.5
20260507015204 64 239 0.9 1.7 0.00 0.05 0.05 88 1007.6
20260507014704 64 239 0.0 0.9 0.00 0.05 0.05 88 1007.7
20260507013704 64 239 0.0 0.0 0.00 0.05 0.05 88 1007.8
20260507013204 64 239 0.9 2.6 0.00 0.05 0.05 87 1008.0
20260507012705 64 233 2.6 4.3 0.00 0.05 0.05 87 1008.1
20260507012205 64 231 1.7 2.6 0.00 0.05 0.05 87 1008.1
20260507011704 64 227 0.9 2.6 0.00 0.05 0.05 86 1008.0
20260507010204 64 233 2.6 4.3 0.00 0.05 0.05 85 1007.5
20260507005704 65 226 1.7 2.6 0.00 0.05 0.05 85 1007.7
20260507005205 65 202 0.9 2.6 0.00 0.05 0.05 84 1007.3
20260507004704 65 194 0.9 2.6 0.00 0.05 0.05 82 1007.4
20260507004205 65 158 1.7 1.7 0.00 0.05 0.05 83 1007.4
20260507003704 65 242 0.0 0.0 0.00 0.05 0.05 83 1007.4
20260507003204 65 242 0.0 0.9 0.00 0.05 0.05 83 1007.4
20260507002704 66 242 1.7 2.6 0.00 0.05 0.05 83 1007.3
20260507002204 66 219 3.5 6.1 0.00 0.05 0.05 82 1007.2
20260507001205 67 222 4.3 4.3 0.00 0.05 0.05 81 1007.1
20260507000705 67 226 4.3 5.2 0.00 0.05 0.05 81 1007.2
20260507000205 67 230 5.2 6.1 0.00 0.05 0.05 80 1007.2
20260506235704 67 229 4.3 6.1 0.00 0.05 0.05 80 1007.2
20260506234705 68 215 5.2 7.0 0.00 0.05 0.05 79 1007.0
20260506234204 68 208 5.2 7.0 0.00 0.05 0.05 78 1006.9
20260506233704 68 213 5.2 6.1 0.00 0.05 0.05 78 1007.0
20260506233204 68 221 4.3 6.1 0.00 0.05 0.05 78 1007.0
20260506232705 68 210 5.2 5.2 0.00 0.05 0.05 78 1007.0
20260506232204 69 211 4.3 7.0 0.00 0.05 0.05 78 1007.0
20260506231704 69 193 4.3 6.1 0.00 0.05 0.05 78 1007.0
20260506231204 69 199 5.2 7.8 0.00 0.05 0.05 78 1006.9
20260506230704 69 194 4.3 6.1 0.00 0.05 0.05 77 1006.9
20260506230204 69 197 4.3 7.8 0.00 0.05 0.05 78 1006.9
20260506225204 69 186 5.2 6.1 0.00 0.05 0.05 77 1006.9
20260506224704 69 214 5.2 8.7 0.00 0.05 0.05 77 1007.0
20260506224204 69 216 5.2 7.0 0.00 0.05 0.05 77 1007.1
20260506223704 69 214 6.1 7.8 0.00 0.05 0.05 78 1006.9
20260506223205 69 216 6.1 10.4 0.00 0.05 0.05 78 1007.0
20260506222705 69 217 7.0 10.4 0.00 0.05 0.05 77 1007.0
20260506222204 69 217 7.8 10.4 0.00 0.05 0.05 77 1006.9
20260506221705 69 216 8.7 10.4 0.00 0.05 0.05 76 1006.9
20260506221204 69 218 8.7 15.6 0.00 0.05 0.05 76 1007.0
20260506220704 69 225 8.7 13.0 0.00 0.05 0.05 76 1007.0
20260506220204 70 219 8.7 12.2 0.00 0.05 0.05 77 1007.0
20260506215704 70 216 8.7 12.2 0.00 0.05 0.05 77 1007.0
20260506215205 70 218 9.6 14.8 0.00 0.05 0.05 77 1006.9
20260506214705 70 218 10.4 15.6 0.00 0.05 0.05 77 1007.0
20260506214204 70 222 12.2 17.4 0.00 0.05 0.05 75 1007.0
20260506213704 70 229 11.3 14.8 0.00 0.05 0.05 76 1006.9
20260506213205 70 224 12.2 17.4 0.00 0.05 0.05 77 1006.7
20260506212705 70 218 13.0 15.6 0.00 0.05 0.05 77 1006.7
20260506212204 70 212 12.2 15.6 0.00 0.05 0.05 76 1006.6
20260506211704 70 216 13.9 19.1 0.00 0.05 0.05 75 1006.7
20260506210704 70 219 12.2 17.4 0.00 0.05 0.05 76 1006.6
20260506210204 70 220 13.0 18.2 0.00 0.05 0.05 76 1006.6
20260506205704 70 222 13.0 17.4 0.00 0.05 0.05 77 1006.5
20260506205204 69 225 12.2 17.4 0.00 0.05 0.05 77 1006.5
20260506204704 69 218 12.2 17.4 0.00 0.05 0.05 76 1006.6
20260506204204 69 215 12.2 17.4 0.00 0.05 0.05 77 1006.5
20260506203204 69 219 13.0 17.4 0.00 0.05 0.05 78 1006.6
20260506202704 69 221 13.0 17.4 0.00 0.05 0.05 78 1006.6
20260506202204 69 216 14.8 19.1 0.00 0.05 0.05 77 1006.3
20260506201704 69 219 13.9 20.0 0.00 0.05 0.05 77 1006.4
20260506201204 69 211 14.8 19.1 0.00 0.05 0.05 77 1006.3
20260506200704 69 214 12.2 19.1 0.00 0.05 0.05 78 1006.5
20260506200204 69 207 14.8 19.1 0.00 0.05 0.05 77 1006.5
20260506195704 69 210 13.9 18.2 0.00 0.05 0.05 77 1006.6
20260506195204 69 224 13.9 17.4 0.00 0.05 0.05 77 1006.8
20260506194704 69 216 12.2 17.4 0.00 0.05 0.05 77 1006.9
20260506194204 69 215 13.9 19.1 0.00 0.05 0.05 77 1007.0
20260506193704 69 206 11.3 19.1 0.00 0.05 0.05 76 1007.0
20260506193204 69 211 13.0 17.4 0.00 0.05 0.05 77 1007.0
20260506192704 69 207 13.9 20.0 0.00 0.05 0.05 76 1006.9
20260506191704 69 203 13.9 17.4 0.00 0.05 0.05 77 1007.0
20260506191204 69 203 13.0 19.1 0.00 0.05 0.05 76 1007.2
20260506185704 69 201 11.3 15.6 0.00 0.05 0.05 77 1007.0
20260506185204 69 211 12.2 17.4 0.00 0.05 0.05 77 1007.2
20260506184704 69 208 12.2 18.2 0.00 0.05 0.05 77 1007.2
20260506184204 68 206 11.3 17.4 0.00 0.05 0.05 77 1007.3
20260506183704 68 208 13.9 20.0 0.00 0.05 0.05 77 1007.3
20260506183204 69 208 12.2 18.2 0.00 0.05 0.05 76 1007.6
20260506182704 69 203 13.9 22.6 0.00 0.05 0.05 76 1007.8
20260506182204 69 204 14.8 22.6 0.00 0.05 0.05 77 1007.9
20260506181704 69 213 15.6 20.9 0.00 0.05 0.05 78 1008.0
20260506181204 69 213 16.5 20.0 0.00 0.05 0.05 77 1007.9
20260506180704 68 211 17.4 22.6 0.00 0.05 0.05 80 1008.1
20260506180204 68 204 17.4 24.3 0.00 0.05 0.05 80 1008.0
20260506175704 68 202 14.8 18.2 0.00 0.05 0.05 79 1007.9
20260506175205 68 213 13.9 19.1 0.00 0.05 0.05 79 1008.2
20260506174704 68 208 17.4 22.6 0.00 0.05 0.05 80 1008.3
20260506174205 67 210 14.8 21.7 0.00 0.05 0.05 79 1008.2
20260506173704 67 211 15.6 24.3 0.00 0.05 0.05 80 1008.3
20260506173204 67 204 14.8 21.7 0.00 0.05 0.05 80 1008.3
20260506172704 67 207 13.9 21.7 0.00 0.05 0.05 80 1008.3
20260506171704 67 209 17.4 22.6 0.00 0.05 0.05 81 1008.1
20260506170704 66 206 14.8 21.7 0.01 0.05 0.05 82 1008.3
20260506170204 66 203 14.8 21.7 0.02 0.05 0.05 81 1008.4
20260506165704 66 200 17.4 22.6 0.02 0.05 0.05 80 1008.4
20260506165204 66 203 15.6 26.1 0.02 0.05 0.05 81 1008.2
20260506164705 66 205 17.4 24.3 0.02 0.05 0.05 82 1008.2
20260506164204 66 208 16.5 22.6 0.02 0.05 0.05 81 1008.3
20260506163704 66 204 13.9 21.7 0.02 0.05 0.05 83 1008.5
20260506163204 65 211 15.6 21.7 0.02 0.05 0.05 85 1008.5
20260506162704 65 213 13.9 20.0 0.02 0.05 0.05 85 1008.5
20260506162204 64 199 13.0 19.1 0.02 0.05 0.05 84 1008.5
20260506161704 64 204 13.9 20.0 0.02 0.05 0.05 84 1008.6
20260506161204 64 207 13.9 25.2 0.03 0.05 0.05 83 1008.7
20260506160704 65 194 13.9 20.9 0.02 0.04 0.04 83 1008.7
20260506160204 65 206 16.5 26.1 0.01 0.03 0.03 82 1008.7
20260506155704 65 196 11.3 17.4 0.02 0.03 0.03 83 1008.7
20260506155204 65 318 10.4 18.2 0.02 0.03 0.03 84 1008.9
20260506154704 64 205 13.0 20.0 0.03 0.03 0.03 83 1009.2
20260506154204 64 325 10.4 14.8 0.03 0.03 0.03 82 1009.2
20260506153204 64 206 10.4 17.4 0.03 0.03 0.03 82 1009.5
20260506152704 64 253 11.3 15.6 0.03 0.03 0.03 81 1009.6
20260506151704 65 216 9.6 17.4 0.03 0.03 0.03 81 1009.5
20260506151204 65 244 10.4 13.9 0.02 0.02 0.02 80 1009.5
20260506150704 65 208 10.4 18.2 0.02 0.02 0.02 80 1009.6